1508828400.05,36724,8.25,73282.0,-5.33,-6.27,-6.63,0,*51
1508828401.3,36725,8.19,73296.0,-5.33,-6.19,-6.51,0,*5C
1508828402.55,36726,8.25,73312.8,-5.33,-6.19,-6.39,0,*51
1508828403.77,36727,8.25,73316.3,-5.35,-6.19,-6.43,0,*5B
1508828404.96,36728,8.25,73298.5,-5.35,-6.13,-6.39,0,*53
1508828406.18,36729,8.25,73272.5,-5.33,-6.13,-6.39,0,*54
1508828407.38,36730,8.25,73286.0,-5.35,-6.09,-6.31,0,*59
1508828408.58,36731,8.25,73284.0,-5.35,-6.13,-6.43,0,*56
1508828409.8,36732,8.25,73278.5,-5.35,-6.27,-6.51,0,*51
1508828411.02,36733,8.25,73290.0,-5.35,-6.19,-6.43,0,*5E
1508828412.25,36734,8.19,73300.5,-5.35,-6.19,-6.51,0,*5A
1508828413.44,36735,8.25,73294.0,-5.35,-6.31,-6.55,0,*55
1508828414.67,36736,8.25,73298.3,-5.35,-6.19,-6.43,0,*5B
1508828415.87,36737,8.25,73314.3,-5.35,-6.01,-6.31,0,*56
1508828417.07,36738,8.25,73344.5,-5.35,-6.13,-6.31,0,*5A
1508828418.29,36739,8.25,73336.3,-5.35,-6.01,-6.27,0,*5F
1508828419.5,36740,8.25,73318.8,-5.39,-6.05,-6.23,0,*5D
1508828420.72,36741,8.25,73330.3,-5.35,-5.97,-6.19,0,*51
1508828421.92,36742,8.25,73328.8,-5.39,-6.05,-6.31,0,*5C
1508828423.14,36743,8.25,73316.5,-5.39,-6.01,-6.23,0,*5A
1508828424.38,36744,8.25,73312.0,-5.33,-6.09,-6.27,0,*5B
1508828425.59,36745,8.25,73316.3,-5.35,-6.09,-6.31,0,*5B
1508828426.81,36746,8.25,73320.8,-5.35,-6.19,-6.51,0,*5F
1508828428.0,36747,8.25,73316.5,-5.35,-6.55,-6.89,0,*53
1508828429.22,36748,8.25,73308.8,-5.35,-6.69,-6.93,0,*58
1508828430.42,36749,8.25,73322.3,-5.39,-6.47,-6.81,0,*5A
1508828431.62,36750,8.19,73304.8,-5.39,-6.55,-6.81,0,*51
1508828432.84,36751,8.25,73324.3,-5.39,-6.23,-6.47,0,*5B
1508828434.04,36752,8.25,73306.8,-5.39,-6.47,-6.81,0,*50
1508828435.23,36753,8.25,73306.8,-5.39,-6.69,-6.85,0,*59
1508828436.46,36754,8.25,73314.0,-5.41,-6.59,-6.89,0,*5E
1508828437.69,36755,8.25,73312.3,-5.41,-6.51,-6.77,0,*56
1508828438.91,36756,8.25,73308.0,-5.39,-6.81,-6.97,0,*59
1508828440.11,36757,8.25,73312.8,-5.39,-6.55,-6.85,0,*52
1508828441.34,36758,8.25,73326.3,-5.41,-6.51,-6.73,0,*5F
1508828442.54,36759,8.25,73322.8,-5.39,-6.35,-6.55,0,*57
1508828443.76,36760,8.25,73310.5,-5.41,-6.39,-6.73,0,*5A
1508828445.01,36761,8.25,73308.8,-5.41,-6.77,-7.01,0,*55
1508828446.25,36762,8.25,73288.5,-5.41,-6.63,-6.89,0,*52
1508828447.48,36763,8.25,73280.3,-5.41,-6.59,-6.89,0,*5A
1508828448.71,36764,8.25,73264.0,-5.41,-6.51,-6.85,0,*59
1508828449.91,36765,8.25,73302.3,-5.43,-6.85,-7.11,0,*5F
1508828451.16,36766,8.25,73282.5,-5.43,-6.97,-7.39,0,*55
1508828452.44,36767,8.25,73300.3,-5.45,-7.43,-7.73,0,*54
1508828453.67,36768,8.25,73302.0,-5.45,-6.89,-7.15,0,*5C
1508828454.9,36769,8.25,73294.3,-5.45,-6.81,-7.15,0,*55
1508828456.15,36770,8.25,73374.8,-5.45,-6.77,-7.05,0,*55
1508828457.38,36771,8.25,73258.0,-5.45,-6.81,-7.15,0,*5C
1508828458.65,36772,8.25,73266.5,-5.45,-6.93,-7.35,0,*5E
1508828459.93,36773,8.25,73284.8,-5.45,-7.05,-7.57,0,*55
1508828461.21,36774,8.25,73340.8,-5.49,-6.97,-7.39,0,*5C
1508828462.48,36775,8.25,73326.5,-5.49,-7.05,-7.73,0,*59
1508828463.73,36776,8.19,73330.8,-5.49,-6.85,-7.39,0,*5D
1508828464.97,36777,8.25,73324.8,-5.49,-7.27,-8.29,0,*5B
1508828466.19,36778,8.25,73308.5,-5.49,-7.11,-8.33,0,*5A
1508828467.44,36779,8.25,73308.5,-5.49,-7.19,-9.37,0,*56
1508828468.72,36780,8.25,73334.0,-5.49,-7.73,-11.59,0,*6D
1508828469.98,36781,8.25,73358.3,-5.49,-7.77,-11.15,0,*60
1508828471.23,36782,8.25,73376.8,-5.51,-7.99,-10.75,0,*6D
1508828472.44,36783,8.25,73348.0,-5.51,-8.41,-12.03,0,*65
1508828473.69,36784,8.25,73352.5,-5.51,-8.81,-13.37,0,*68
1508828474.95,36785,8.25,73340.0,-5.53,-8.89,-14.05,0,*65
1508828476.21,36786,8.25,73360.3,-5.53,-8.11,-11.19,0,*6F
1508828477.46,36787,8.25,73332.3,-5.53,-8.11,-10.09,0,*6E
1508828478.69,36788,8.25,73348.0,-5.55,-7.69,-9.01,0,*57
1508828479.93,36789,8.25,73386.3,-5.57,-7.49,-8.51,0,*52
1508828481.17,36790,8.25,73394.5,-5.57,-7.69,-8.75,0,*5E
1508828482.42,36791,8.25,73410.5,-5.57,-7.57,-8.75,0,*52
1508828483.69,36792,8.25,73392.8,-5.57,-7.43,-8.11,0,*56
1508828484.92,36793,8.25,73358.3,-5.57,-7.19,-7.87,0,*58
1508828486.15,36794,8.25,73386.3,-5.57,-7.19,-7.87,0,*5F
1508828487.39,36795,8.25,73382.5,-5.57,-7.15,-7.95,0,*51
1508828488.61,36796,8.25,73370.0,-5.57,-7.49,-8.29,0,*53
1508828489.81,36797,8.25,73358.5,-5.63,-7.53,-8.17,0,*53
1508828491.03,36798,8.25,73338.0,-5.61,-7.53,-8.29,0,*53
1508828492.3,36799,8.25,73374.5,-5.61,-7.35,-8.11,0,*59
1508828493.49,36800,8.25,73360.5,-5.63,-7.49,-8.33,0,*5F
1508828494.71,36801,8.25,73390.0,-5.61,-7.53,-8.33,0,*57
1508828495.93,36802,8.25,73380.5,-5.61,-7.49,-8.33,0,*5F
1508828497.15,36803,8.25,73384.0,-5.61,-7.53,-8.41,0,*50
1508828498.37,36804,8.25,73366.3,-5.61,-6.81,-7.53,0,*55
1508828499.61,36805,8.25,73366.5,-5.61,-6.43,-6.81,0,*54
1508828500.86,36806,8.25,73346.0,-5.57,-5.85,-6.05,0,*57
1508828502.05,36807,8.25,73340.0,-5.55,-5.97,-6.35,0,*54
1508828503.31,36808,8.25,73354.3,-5.55,-5.85,-6.19,0,*56
1508828504.5,36809,8.25,73338.8,-5.55,-6.05,-6.35,0,*52
1508828505.7,36810,8.25,73340.3,-5.55,-5.97,-6.35,0,*52
1508828506.9,36811,8.25,73348.5,-5.51,-6.01,-6.31,0,*5F
1508828508.14,36812,8.25,73352.3,-5.51,-5.93,-6.31,0,*54
1508828509.34,36813,8.25,73312.8,-5.51,-6.01,-6.31,0,*5D
1508828510.54,36814,8.25,73288.5,-5.51,-6.05,-6.31,0,*5E
1508828511.79,36815,8.25,73318.8,-5.49,-6.19,-6.43,0,*5E
1508828513.01,36816,8.25,73314.0,-5.45,-6.31,-6.69,0,*53
1508828514.26,36817,8.25,73318.0,-5.45,-6.27,-6.55,0,*5A
1508828515.49,36818,8.25,73316.0,-5.45,-6.09,-6.39,0,*53
1508828516.74,36819,8.25,73328.3,-5.49,-6.19,-6.43,0,*52
1508828517.96,36820,8.25,73320.8,-5.49,-6.01,-6.31,0,*54
1508828519.22,36821,8.25,73326.0,-5.45,-5.85,-6.13,0,*56
1508828520.49,36822,8.25,73318.0,-5.45,-5.61,-5.77,0,*5E
1508828521.71,36823,8.25,73322.0,-5.43,-5.43,-5.69,0,*56
1508828522.96,36824,8.25,73304.5,-5.45,-5.43,-5.61,0,*5F
1508828524.21,36825,8.25,73298.0,-5.41,-5.47,-5.73,0,*5D
1508828525.44,36826,8.25,73296.5,-5.39,-5.55,-5.89,0,*57
1508828526.69,36827,8.25,73296.3,-5.39,-5.77,-6.19,0,*5C
1508828527.89,36828,8.25,73286.8,-5.39,-6.01,-6.31,0,*5B
1508828529.16,36829,8.25,73310.8,-5.41,-6.27,-6.63,0,*56
1508828530.35,36830,8.25,73304.5,-5.39,-6.47,-6.85,0,*5F
1508828531.58,36831,8.25,73312.0,-5.41,-6.59,-6.89,0,*52
1508828532.8,36832,8.25,73324.8,-5.39,-6.93,-7.15,0,*5C
1508828534.08,36833,8.25,73348.3,-5.41,-7.01,-7.39,0,*56
1508828535.27,36834,8.25,73332.8,-5.39,-7.11,-7.53,0,*53
1508828536.5,36835,8.25,73322.5,-5.41,-6.51,-6.85,0,*52
1508828537.76,36836,8.25,73326.3,-5.41,-6.19,-6.51,0,*54
1508828539.01,36837,8.25,73322.5,-5.41,-6.35,-6.63,0,*5A
1508828540.29,36838,8.25,73328.8,-5.41,-7.01,-7.27,0,*52
1508828541.56,36839,8.25,73338.3,-5.41,-6.63,-6.97,0,*5C
1508828542.78,36840,8.25,73334.5,-5.41,-6.47,-6.85,0,*57
1508828544.0,36841,8.25,73328.8,-5.41,-6.39,-6.73,0,*56
1508828545.27,36842,8.25,73326.0,-5.41,-6.27,-6.63,0,*5B
1508828546.5,36843,8.25,73314.5,-5.41,-6.39,-6.85,0,*5D
1508828547.72,36844,8.25,73310.8,-5.41,-6.39,-6.77,0,*57
1508828548.95,36845,8.25,73318.5,-5.41,-6.59,-6.89,0,*51
1508828550.17,36846,8.25,73316.5,-5.41,-6.51,-6.89,0,*5A
1508828551.43,36847,8.25,73302.5,-5.41,-6.35,-6.63,0,*5D
1508828552.68,36848,8.25,73314.8,-5.41,-6.23,-6.39,0,*5A
1508828553.9,36849,8.25,73312.5,-5.41,-6.59,-6.89,0,*5D
1508828555.17,36850,8.25,73308.8,-5.41,-7.39,-7.65,0,*51
1508828556.42,36851,8.25,73298.3,-5.43,-7.43,-7.77,0,*5C
1508828557.65,36852,8.25,73312.8,-5.45,-6.55,-6.89,0,*5F
1508828558.85,36853,8.25,73300.0,-5.43,-6.35,-6.73,0,*5B
1508828560.09,36854,8.25,73302.0,-5.43,-6.63,-6.97,0,*55
1508828561.32,36855,8.25,73288.5,-5.43,-6.19,-6.51,0,*53
1508828562.52,36856,8.25,73282.5,-5.43,-6.35,-6.77,0,*5A
1508828563.72,36857,8.25,73290.5,-5.43,-6.35,-6.73,0,*5F
1508828564.95,36858,8.25,73284.8,-5.43,-6.23,-6.51,0,*57
1508828566.18,36859,8.25,73294.5,-5.45,-6.51,-6.89,0,*50
1508828567.38,36860,8.25,73282.8,-5.43,-6.59,-6.89,0,*54
1508828568.6,36861,8.25,73300.3,-5.43,-6.73,-7.01,0,*5C
1508828569.8,36862,8.25,73308.3,-5.43,-6.51,-6.89,0,*5E
1508828571.07,36863,8.25,73312.8,-5.45,-6.63,-6.93,0,*53
1508828572.33,36864,8.25,73338.8,-5.45,-6.93,-7.19,0,*58
1508828573.57,36865,8.25,73338.8,-5.43,-7.01,-7.39,0,*57
1508828574.81,36866,8.25,73324.5,-5.43,-7.11,-7.43,0,*58
1508828576.06,36867,8.25,73336.0,-5.45,-7.05,-7.19,0,*55
1508828577.3,36868,8.25,73332.8,-5.45,-6.69,-7.05,0,*5C
1508828578.52,36869,8.25,73320.3,-5.45,-6.43,-6.89,0,*50
1508828579.74,36870,8.25,73348.3,-5.45,-6.43,-6.69,0,*56
1508828580.99,36871,8.25,73338.8,-5.45,-6.81,-7.05,0,*52
1508828582.22,36872,8.25,73330.3,-5.45,-6.43,-6.77,0,*5B
1508828583.47,36873,8.25,73336.8,-5.45,-6.27,-6.51,0,*5C
1508828584.74,36874,8.25,73346.3,-5.45,-6.27,-6.63,0,*5A
1508828585.97,36875,8.25,73346.0,-5.45,-6.31,-6.55,0,*59
1508828587.2,36876,8.25,73354.0,-5.45,-6.01,-6.31,0,*5B
1508828588.45,36877,8.25,73362.0,-5.45,-5.97,-6.27,0,*51
1508828589.67,36878,8.25,73356.3,-5.43,-5.97,-6.23,0,*5C
1508828590.89,36879,8.25,73348.5,-5.45,-6.01,-6.39,0,*5C
1508828592.14,36880,8.25,73346.0,-5.45,-6.23,-6.55,0,*50
1508828593.36,36881,8.25,73354.3,-5.45,-6.39,-6.69,0,*55
1508828594.56,36882,8.25,73364.3,-5.43,-6.09,-6.35,0,*5A
1508828595.79,36883,8.25,73334.8,-5.43,-6.19,-6.59,0,*50
1508828597.02,36884,8.25,73340.5,-5.43,-6.19,-6.51,0,*5F
1508828598.22,36885,8.25,73332.0,-5.43,-6.05,-6.35,0,*51
1508828599.44,36886,8.25,73364.3,-5.43,-6.23,-6.47,0,*53
1508828600.64,36887,8.25,73368.0,-5.43,-6.59,-6.85,0,*51
1508828601.86,36888,8.25,73356.0,-5.43,-6.27,-6.59,0,*56
1508828603.06,36889,8.25,73332.8,-5.43,-6.05,-6.35,0,*5D
1508828604.31,36890,8.25,73338.0,-5.39,-5.93,-6.19,0,*5A
1508828605.51,36891,8.25,73326.3,-5.39,-6.13,-6.43,0,*5F
1508828606.7,36892,8.25,73334.3,-5.39,-6.05,-6.35,0,*5A
1508828607.93,36893,8.25,73328.8,-5.41,-6.09,-6.39,0,*54
1508828609.15,36894,8.25,73342.0,-5.39,-6.19,-6.47,0,*54
1508828610.36,36895,8.25,73340.3,-5.39,-6.43,-6.81,0,*50
1508828611.58,36896,8.25,73320.5,-5.41,-6.47,-6.77,0,*51
1508828612.81,36897,8.25,73294.0,-5.41,-6.51,-6.89,0,*56
1508828614.04,36898,8.25,73320.0,-5.41,-6.51,-6.89,0,*59
1508828615.24,36899,8.25,73340.3,-5.39,-6.35,-6.73,0,*50
1508828616.44,36900,8.25,73316.8,-5.43,-6.51,-6.85,0,*57
1508828617.69,36901,8.25,73318.8,-5.43,-6.97,-7.31,0,*52
1508828618.93,36902,8.25,73302.8,-5.43,-6.63,-7.01,0,*59
1508828620.18,36903,8.25,73318.5,-5.45,-6.77,-7.05,0,*5F
1508828621.42,36904,8.25,73316.3,-5.45,-6.69,-7.05,0,*57
1508828622.66,36905,8.25,73278.8,-5.45,-6.77,-7.05,0,*59
1508828623.9,36906,8.25,73306.3,-5.45,-6.69,-7.05,0,*55
1508828625.17,36907,8.25,73290.3,-5.45,-6.63,-6.93,0,*50
1508828626.43,36908,8.25,73302.8,-5.45,-6.63,-7.05,0,*51
1508828627.66,36909,8.25,73352.0,-5.43,-6.55,-7.01,0,*57
1508828628.93,36910,8.25,73326.8,-5.45,-6.63,-7.01,0,*5C
1508828630.18,36911,8.25,73308.3,-5.45,-6.93,-7.23,0,*52
1508828631.44,36912,8.25,73320.3,-5.45,-6.51,-6.93,0,*55
1508828632.69,36913,8.25,73286.8,-5.45,-6.51,-6.93,0,*54
1508828633.93,36914,8.25,73324.8,-5.45,-6.43,-6.81,0,*53
1508828635.15,36915,8.25,73318.8,-5.45,-6.55,-6.89,0,*5D
1508828636.38,36916,8.25,73298.3,-5.45,-6.55,-6.89,0,*5E
1508828637.6,36917,8.25,73314.3,-5.45,-6.55,-6.89,0,*5F
1508828638.83,36918,8.25,73292.3,-5.49,-6.43,-6.73,0,*5E
1508828640.05,36919,8.25,73290.3,-5.45,-6.43,-6.69,0,*58
1508828641.29,36920,8.25,73302.5,-5.45,-6.69,-7.01,0,*55
1508828642.53,36921,8.25,73298.8,-5.45,-6.51,-6.81,0,*56
1508828643.77,36922,8.25,73300.8,-5.49,-6.73,-7.05,0,*54
1508828645.01,36923,8.25,73322.3,-5.49,-6.73,-7.05,0,*55
1508828646.28,36924,8.25,73328.3,-5.45,-6.63,-7.01,0,*5B
1508828647.5,36925,8.25,73340.5,-5.49,-6.47,-6.81,0,*59
1508828648.73,36926,8.25,73358.0,-5.45,-6.39,-6.77,0,*56
1508828649.96,36927,8.25,73362.8,-5.49,-6.55,-6.81,0,*58
1508828651.18,36928,8.25,73366.5,-5.45,-6.43,-6.69,0,*5A
1508828652.4,36929,8.25,73360.8,-5.45,-6.43,-6.69,0,*5B
1508828653.65,36930,8.25,73374.5,-5.45,-6.23,-6.51,0,*5E
1508828654.88,36931,8.25,73360.8,-5.49,-6.35,-6.73,0,*54
1508828656.1,36932,8.25,73362.8,-5.45,-6.39,-6.69,0,*5C
1508828657.35,36933,8.25,73340.0,-5.45,-6.31,-6.63,0,*5F
1508828658.59,36934,8.25,73356.8,-5.49,-6.27,-6.55,0,*56
1508828659.84,36935,8.25,73360.8,-5.45,-6.23,-6.55,0,*5F
1508828661.09,36936,8.25,73346.5,-5.45,-6.27,-6.51,0,*5C
1508828662.32,36937,8.25,73360.5,-5.45,-6.13,-6.31,0,*5C
1508828663.55,36938,8.25,73366.8,-5.45,-5.97,-6.31,0,*5C
1508828664.83,36939,8.25,73384.0,-5.45,-5.89,-6.23,0,*51
1508828666.08,36940,8.25,73390.5,-5.43,-5.85,-6.23,0,*55
1508828667.33,36941,8.25,73386.5,-5.45,-5.97,-6.27,0,*55
1508828668.55,36942,8.25,73386.5,-5.43,-5.81,-6.05,0,*57
1508828669.78,36943,8.25,73370.3,-5.43,-5.55,-5.81,0,*50
1508828671.0,36944,8.25,73356.8,-5.43,-5.47,-5.73,0,*59
1508828672.22,36945,8.25,73360.8,-5.39,-5.47,-5.69,0,*5E
1508828673.48,36946,8.25,73364.8,-5.41,-5.47,-5.69,0,*52
1508828674.72,36947,8.25,73366.0,-5.39,-5.69,-5.93,0,*55
1508828675.98,36948,8.25,73366.5,-5.39,-5.93,-6.19,0,*5E
1508828677.19,36949,8.25,73374.8,-5.35,-5.77,-6.09,0,*58
1508828678.44,36950,8.25,73370.0,-5.33,-5.97,-6.19,0,*59
1508828679.66,36951,8.25,73368.8,-5.35,-5.97,-6.19,0,*5E
1508828680.89,36952,8.25,73372.0,-5.35,-5.85,-6.13,0,*54
1508828682.13,36953,8.25,73384.3,-5.33,-5.85,-6.09,0,*58
1508828683.35,36954,8.25,73358.8,-5.35,-5.89,-6.13,0,*5E
1508828684.59,36955,8.25,73364.5,-5.33,-5.89,-6.13,0,*59
1508828685.84,36956,8.25,73394.3,-5.33,-5.85,-6.13,0,*56
1508828687.05,36957,8.25,73420.8,-5.35,-5.73,-5.97,0,*57
1508828688.27,36958,8.25,73322.8,-5.35,-5.65,-5.97,0,*5F
1508828689.51,36959,8.25,73354.5,-5.33,-6.27,-6.51,0,*54
1508828690.75,36960,8.25,73366.5,-5.33,-5.89,-6.13,0,*5F
1508828691.99,36961,8.25,73340.3,-5.33,-5.65,-5.97,0,*53
1508828693.24,36962,8.25,73326.3,-5.31,-5.69,-6.09,0,*5A
1508828694.5,36963,8.25,73362.8,-5.31,-5.93,-6.13,0,*55
1508828695.74,36964,8.25,73354.0,-5.31,-6.05,-6.23,0,*5D
1508828697.0,36965,8.25,73352.0,-5.31,-5.85,-6.13,0,*54
1508828698.25,36966,8.25,73342.3,-5.31,-5.85,-6.09,0,*5C
1508828699.48,36967,8.25,73344.5,-5.29,-5.85,-6.13,0,*5F
1508828700.7,36968,8.25,73348.0,-5.31,-6.05,-6.39,0,*5A
1508828701.95,36969,8.25,73388.8,-5.29,-6.27,-6.63,0,*5D
1508828703.23,36970,8.25,73350.0,-5.31,-7.01,-9.45,0,*52
1508828704.49,36971,8.25,73348.0,-5.31,-8.07,-10.85,0,*6E
1508828705.77,36972,8.25,73356.5,-5.31,-8.51,-10.71,0,*65
1508828707.04,36973,8.25,73366.8,-5.33,-7.91,-9.57,0,*59
1508828708.26,36974,8.25,73386.8,-5.35,-8.37,-9.61,0,*5E
1508828709.48,36975,8.25,73336.5,-5.33,-9.31,-10.57,0,*63
1508828710.72,36976,8.25,73384.3,-5.35,-9.05,-10.75,0,*61
1508828711.94,36977,8.25,73346.5,-5.35,-9.75,-11.97,0,*6A
1508828713.17,36978,8.25,73364.8,-5.39,-8.51,-9.01,0,*58
1508828714.44,36979,8.25,73360.0,-5.41,-7.01,-7.69,0,*5C
1508828715.63,36980,8.25,73372.8,-5.39,-6.73,-7.49,0,*53
1508828716.88,36981,8.25,73406.8,-5.39,-6.97,-7.77,0,*55
1508828718.09,36982,8.25,73386.8,-5.35,-6.31,-6.73,0,*53
1508828719.32,36983,8.25,73374.3,-5.33,-6.31,-6.93,0,*5A
1508828720.55,36984,8.25,73360.5,-5.35,-6.19,-7.23,0,*5B
1508828721.79,36985,8.25,73366.8,-5.33,-6.93,-8.29,0,*5B
1508828723.01,36986,8.25,73352.5,-5.33,-6.89,-7.83,0,*5C
1508828724.27,36987,8.25,73336.0,-5.31,-5.93,-6.85,0,*50
1508828725.54,36988,8.25,73344.8,-5.31,-5.73,-6.27,0,*59
1508828726.75,36989,8.25,73392.8,-5.29,-5.55,-6.05,0,*55
1508828728.02,36990,8.25,73350.3,-5.27,-5.77,-6.19,0,*5E
1508828729.25,36991,8.25,73350.5,-5.25,-5.89,-6.43,0,*53
1508828730.48,36992,8.25,73370.8,-5.25,-5.93,-6.55,0,*5C
1508828731.73,36993,8.25,73360.3,-5.27,-6.55,-7.91,0,*5F
1508828732.93,36994,8.25,73350.5,-5.25,-6.81,-8.55,0,*54
1508828734.16,36995,8.25,73364.0,-5.25,-7.83,-10.79,0,*61
1508828735.38,36996,8.25,73368.8,-5.25,-8.89,-12.29,0,*60
1508828736.62,36997,8.25,73378.5,-5.25,-9.15,-12.21,0,*6D
1508828737.85,36998,8.25,73354.5,-5.27,-8.89,-13.15,0,*62
1508828739.1,36999,8.25,73342.5,-5.27,-7.65,-9.93,0,*5B
1508828740.38,37000,8.25,73372.5,-5.27,-7.95,-11.77,0,*6F
1508828741.6,37001,8.25,73384.3,-5.27,-7.15,-9.79,0,*51
1508828742.85,37002,8.25,73372.3,-5.25,-6.23,-7.65,0,*57
1508828744.1,37003,8.25,73376.8,-5.27,-6.23,-7.49,0,*5A
1508828745.3,37004,8.25,73354.0,-5.25,-6.31,-7.49,0,*5C
1508828746.55,37005,8.25,73366.8,-5.27,-6.35,-7.39,0,*5C
1508828747.8,37006,8.25,73358.3,-5.27,-6.81,-7.35,0,*5C
1508828749.07,37007,8.25,73340.8,-5.27,-7.01,-7.95,0,*5E
1508828750.33,37008,8.25,73348.8,-5.27,-6.97,-7.83,0,*58
1508828751.61,37009,8.25,73354.5,-5.27,-6.97,-7.61,0,*55
1508828752.86,37010,8.25,73350.0,-5.27,-7.11,-7.61,0,*52
1508828754.07,37011,8.25,73346.0,-5.29,-6.73,-7.19,0,*57
1508828755.29,37012,8.25,73340.8,-5.29,-6.27,-6.85,0,*51
1508828756.54,37013,8.25,73330.8,-5.31,-6.23,-6.51,0,*54
1508828757.75,37014,8.25,73332.8,-5.29,-6.13,-6.47,0,*5E
1508828758.95,37015,8.25,73356.3,-5.29,-6.13,-6.39,0,*56
1508828760.16,37016,8.25,73372.8,-5.29,-6.13,-6.47,0,*5C
1508828761.37,37017,8.25,73370.8,-5.29,-6.35,-6.73,0,*5E
1508828762.57,37018,8.25,73374.5,-5.29,-6.47,-6.77,0,*50
1508828763.79,37019,8.25,73382.8,-5.29,-6.73,-6.97,0,*58
1508828765.04,37020,8.25,73376.3,-5.31,-6.63,-6.89,0,*55
1508828766.27,37021,8.25,73388.8,-5.31,-6.77,-6.85,0,*5D
1508828767.5,37022,8.25,73366.0,-5.31,-6.51,-6.73,0,*53
1508828768.72,37023,8.25,73348.0,-5.31,-6.39,-6.59,0,*54
1508828769.96,37024,8.25,73368.0,-5.31,-6.35,-6.59,0,*5F
1508828771.23,37025,8.25,73374.5,-5.31,-6.27,-6.63,0,*54
1508828772.46,37026,8.25,73348.5,-5.31,-6.35,-6.77,0,*51
1508828773.71,37027,8.25,73344.0,-5.31,-6.73,-7.31,0,*51
1508828774.96,37028,8.25,73338.5,-5.31,-6.27,-6.85,0,*51
1508828776.21,37029,8.25,73352.0,-5.31,-6.13,-6.63,0,*5F
1508828777.44,37030,8.25,73330.0,-5.31,-6.13,-6.59,0,*5E
1508828778.67,37031,8.25,73366.3,-5.31,-6.13,-6.35,0,*55
1508828779.9,37032,8.25,73358.3,-5.29,-6.13,-6.27,0,*5C
1508828781.13,37033,8.25,73354.3,-5.31,-5.97,-6.09,0,*57
1508828782.36,37034,8.25,73370.8,-5.29,-5.93,-6.05,0,*51
1508828783.56,37035,8.25,73342.5,-5.29,-5.97,-6.05,0,*54
1508828784.78,37036,8.25,73348.0,-5.29,-6.13,-6.27,0,*58
1508828786.01,37037,8.25,73348.0,-5.29,-5.93,-6.05,0,*52
1508828787.27,37038,8.25,73346.3,-5.29,-5.81,-5.93,0,*52
1508828788.49,37039,8.25,73350.5,-5.27,-6.05,-6.09,0,*52
1508828789.71,37040,8.25,73364.3,-5.25,-6.05,-6.19,0,*5F
1508828790.99,37041,8.25,73356.5,-5.27,-5.77,-5.93,0,*5B
1508828792.26,37042,8.25,73340.0,-5.27,-5.69,-5.81,0,*54
1508828793.52,37043,8.25,73352.3,-5.25,-5.69,-5.81,0,*57
1508828794.74,37044,8.25,73378.5,-5.25,-5.89,-6.01,0,*55
1508828795.96,37045,8.25,73350.0,-5.25,-6.05,-6.23,0,*53
1508828797.21,37046,8.25,73370.3,-5.27,-5.93,-6.05,0,*5A
1508828798.49,37047,8.25,73370.5,-5.27,-5.81,-5.89,0,*5F
1508828799.74,37048,8.25,73374.5,-5.25,-6.19,-6.23,0,*53
1508828800.97,37049,8.25,73374.0,-5.25,-6.19,-6.35,0,*55
1508828802.19,37050,8.25,73360.0,-5.25,-6.23,-6.43,0,*55
1508828803.41,37051,8.25,73364.0,-5.27,-6.55,-6.73,0,*54
1508828804.64,37052,8.25,73380.0,-5.27,-6.47,-6.73,0,*54
1508828805.89,37053,8.25,73362.5,-5.27,-6.81,-7.01,0,*5B
1508828807.12,37054,8.25,73376.3,-5.27,-6.59,-6.81,0,*50
1508828808.34,37055,8.25,73376.8,-5.27,-6.69,-6.81,0,*52
1508828809.56,37056,8.25,73378.0,-5.29,-6.63,-6.89,0,*5D
1508828810.77,37057,8.25,73376.8,-5.29,-6.59,-6.85,0,*59
1508828812.0,37058,8.25,73366.0,-5.31,-6.59,-6.85,0,*5F
1508828813.22,37059,8.25,73380.8,-5.29,-6.39,-6.63,0,*59
1508828814.47,37060,8.25,73352.5,-5.31,-6.85,-6.97,0,*56
1508828815.68,37061,8.25,73344.3,-5.29,-6.59,-6.77,0,*51
1508828816.89,37062,8.25,73352.8,-5.29,-6.35,-6.51,0,*5C
1508828818.12,37063,8.25,73356.5,-5.31,-6.13,-6.35,0,*52
1508828819.32,37064,8.25,73354.5,-5.29,-6.39,-6.51,0,*56
1508828820.57,37065,8.25,73364.8,-5.31,-6.23,-6.47,0,*52
1508828821.82,37066,8.25,73358.3,-5.31,-6.23,-6.39,0,*58
1508828823.05,37067,8.25,73356.0,-5.31,-6.13,-6.35,0,*56
1508828824.3,37068,8.25,73352.0,-5.31,-6.27,-6.47,0,*5B
1508828825.56,37069,8.25,73362.8,-5.31,-6.51,-6.63,0,*5D
1508828826.79,37070,8.25,73338.0,-5.31,-6.51,-6.73,0,*54
1508828828.01,37071,8.25,73332.5,-5.31,-6.39,-6.59,0,*53
1508828829.24,37072,8.25,73332.0,-5.31,-6.47,-6.59,0,*59
1508828830.47,37073,8.25,73342.8,-5.31,-6.73,-6.89,0,*52
1508828831.74,37074,8.25,73332.0,-5.31,-7.05,-7.31,0,*57
1508828832.99,37075,8.25,73312.3,-5.33,-6.93,-7.19,0,*50
1508828834.26,37076,8.25,73324.5,-5.33,-7.05,-7.43,0,*52
1508828835.51,37077,8.25,73338.5,-5.35,-7.05,-7.31,0,*50
1508828836.75,37078,8.25,73346.5,-5.35,-7.05,-7.31,0,*5F
1508828837.98,37079,8.25,73340.0,-5.39,-6.97,-7.15,0,*5E
1508828839.21,37080,8.25,73358.5,-5.39,-6.93,-7.11,0,*58
1508828840.43,37081,8.25,73354.5,-5.39,-6.93,-7.11,0,*59
1508828841.63,37082,8.25,73360.5,-5.39,-6.85,-7.11,0,*5D
1508828842.88,37083,8.25,73348.5,-5.41,-6.77,-7.01,0,*5F
1508828844.1,37084,8.25,73364.0,-5.39,-6.73,-7.01,0,*53
1508828845.35,37085,8.25,73380.8,-5.41,-6.63,-6.85,0,*51
1508828846.57,37086,8.25,73356.5,-5.41,-6.59,-6.77,0,*56
1508828847.82,37087,8.25,73340.8,-5.41,-6.39,-6.63,0,*54
1508828849.07,37088,8.25,73366.0,-5.41,-6.27,-6.51,0,*55
1508828850.32,37089,8.25,73364.8,-5.41,-6.27,-6.51,0,*54
1508828851.57,37090,8.25,73352.0,-5.41,-6.27,-6.51,0,*5C
1508828852.79,37091,8.25,73346.0,-5.39,-6.19,-6.47,0,*58
1508828853.99,37092,8.25,73366.8,-5.39,-6.13,-6.35,0,*54
1508828855.18,37093,8.25,73372.5,-5.39,-6.05,-6.35,0,*52
1508828856.38,37094,8.25,73376.3,-5.39,-6.43,-6.59,0,*5D
1508828857.61,37095,8.25,73386.5,-5.41,-6.51,-6.73,0,*58
1508828858.81,37096,8.25,73366.0,-5.39,-6.31,-6.55,0,*56
1508828860.01,37097,8.25,73360.5,-5.39,-6.35,-6.55,0,*53
1508828861.23,37098,8.25,73366.5,-5.39,-6.23,-6.35,0,*5D
1508828862.46,37099,8.25,73358.5,-5.39,-6.19,-6.43,0,*54
1508828863.68,37100,8.25,73350.0,-5.39,-6.23,-6.43,0,*5C
1508828864.9,37101,8.25,73356.8,-5.35,-6.51,-6.63,0,*56
1508828866.09,37102,8.25,73362.3,-5.35,-6.39,-6.55,0,*5E
1508828867.29,37103,8.25,73368.0,-5.35,-6.39,-6.55,0,*5F
1508828868.51,37104,8.25,73374.3,-5.35,-6.77,-6.93,0,*58
1508828869.71,37105,8.25,73376.3,-5.35,-6.69,-6.81,0,*55
1508828870.9,37106,8.25,73374.3,-5.35,-6.55,-6.89,0,*51
1508828872.1,37107,8.25,73378.0,-5.39,-6.31,-6.55,0,*5F
1508828873.32,37108,8.25,73344.8,-5.39,-6.23,-6.35,0,*55
1508828874.53,37109,8.25,73354.5,-5.39,-6.05,-6.23,0,*57
1508828875.76,37110,8.25,73354.8,-5.33,-6.09,-6.31,0,*5A
1508828877.01,37111,8.25,73352.3,-5.33,-6.09,-6.19,0,*51
1508828878.23,37112,8.25,73340.0,-5.35,-6.01,-6.27,0,*51
1508828879.45,37113,8.25,73332.5,-5.35,-5.85,-6.09,0,*53
1508828880.7,37114,8.25,73322.3,-5.33,-6.09,-6.19,0,*54
1508828881.92,37115,8.25,73340.5,-5.35,-6.09,-6.27,0,*5E
1508828883.14,37116,8.25,73322.5,-5.33,-6.55,-6.77,0,*57
1508828884.36,37117,8.25,73328.0,-5.33,-6.43,-6.77,0,*51
1508828885.58,37118,8.25,73334.8,-5.33,-6.43,-6.69,0,*51
1508828886.82,37119,8.25,73322.0,-5.33,-6.77,-7.01,0,*58
1508828888.07,37120,8.25,73318.8,-5.35,-6.93,-7.31,0,*5D
1508828889.35,37121,8.25,73350.8,-5.33,-6.93,-7.43,0,*5F
1508828890.54,37122,8.25,73378.0,-5.35,-6.89,-7.49,0,*5B
1508828891.74,37123,8.25,73362.5,-5.35,-6.81,-7.23,0,*5E
1508828892.99,37124,8.25,73346.3,-5.35,-6.93,-7.35,0,*5D
1508828894.21,37125,8.25,73338.8,-5.35,-6.89,-7.31,0,*53
1508828895.43,37126,8.25,73370.0,-5.39,-6.97,-7.15,0,*55
1508828896.68,37127,8.25,73354.0,-5.39,-6.97,-7.35,0,*56
1508828897.96,37128,8.25,73344.3,-5.41,-7.01,-7.27,0,*5B
1508828899.19,37129,8.25,73364.5,-5.39,-6.93,-7.11,0,*5A
1508828900.4,37130,8.25,73362.0,-5.39,-6.85,-7.05,0,*50
1508828901.65,37131,8.25,73384.0,-5.39,-6.97,-7.27,0,*52
1508828902.89,37132,8.25,73378.8,-5.39,-7.05,-7.27,0,*5B
1508828904.15,37133,8.25,73368.8,-5.41,-7.15,-7.39,0,*5B
1508828905.4,37134,8.25,73382.0,-5.41,-7.01,-7.19,0,*5B
1508828906.65,37135,8.25,73382.0,-5.41,-6.77,-7.01,0,*53
1508828907.87,37136,8.25,73378.3,-5.41,-6.39,-6.73,0,*5E
1508828909.12,37137,8.25,73382.5,-5.41,-6.27,-6.51,0,*50
1508828910.36,37138,8.25,73372.0,-5.41,-6.27,-6.39,0,*51
1508828911.64,37139,8.25,73366.0,-5.41,-6.19,-6.27,0,*52
1508828912.89,37140,8.31,73380.5,-5.41,-6.23,-6.39,0,*5A
1508828914.11,37141,8.25,73378.3,-5.41,-6.47,-6.59,0,*5F
1508828915.31,37142,8.25,73352.0,-5.39,-6.35,-6.59,0,*56
1508828916.51,37143,8.25,73342.5,-5.39,-6.35,-6.55,0,*5B
1508828917.74,37144,8.25,73350.0,-5.39,-6.19,-6.35,0,*54